Location: Hamburg
(53.5554°N, 9.9941°E)
Time: 03:46:40
(UTC+02:00)

ISS - Pass Details

Date: 15 May 2021
Orbit: 417 x 422 km, 51.6° (Epoch: 15 June)

Event Time Altitude Azimuth Distance (km) Brightness Sun altitude
Rises 00:24:55 0° 248° (WSW) 2,364 0.0 -16.7°
Reaches altitude 10° 00:27:03 10° 243° (WSW) 1,502 -1.1 -16.8°
Maximum altitude 00:30:19 51° 167° (SSE) 541 -3.7 -16.9°
Drops below altitude 10° 00:33:38 10° 90° (E) 1,509 -1.1 -17.0°
Sets 00:35:46 0° 85° (E) 2,376 0.0 -17.1°
